"Time","Temp","Dewpoint","Humidity","Pressure","Direction","Speed","Gust","Precip","PrecipRate"
"00:04:56","69.6","68.7","97","29.82","218","0.1","1.2","0.00","0.01"
"00:09:59","69.6","68.7","97","29.82","218","0.1","1.2","0.00","0.01"
"00:14:59","69.6","68.7","97","29.82","218","0","0","0.00","0.01"
"00:19:58","69.5","68.6","97","29.81","218","0","0","0.00","0.01"
"00:24:58","69.5","68.6","97","29.81","218","0","0","0.00","0.00"
"00:29:57","69.6","68.7","97","29.82","218","0","0","0.00","0.00"
"00:34:57","69.6","68.9","97.7","29.82","218","0","0","0.00","0.00"
"00:39:59","69.6","68.7","97.1","29.82","218","0","0","0.00","0.00"
"00:44:58","69.6","68.7","97","29.82","218","0","0","0.00","0.00"
"00:49:57","69.6","68.7","97.1","29.82","218","0","0","0.00","0.00"
"00:54:59","69.6","69","98","29.82","218","0","0","0.00","0.00"
"00:59:58","69.6","68.9","97.6","29.82","218","0","2","0.01","0.00"
"01:04:56","69.5","68.6","97","29.82","218","0","0","0.01","0.01"
"01:09:58","69.5","68.6","97","29.82","218","0","0","0.01","0.01"
"01:14:56","69.4","68.5","97","29.82","218","0","0","0.01","0.01"
"01:19:56","69.2","68.3","97","29.82","218","0","0","0.01","0.01"
"01:24:57","69","68.1","97","29.82","218","0","0","0.01","0.01"
"01:29:56","69","68.1","97","29.82","218","0","0","0.01","0.01"
"01:34:59","68.9","68","97","29.81","218","0","0","0.01","0.01"
"01:39:57","68.8","67.9","97","29.81","218","0","0","0.01","0.01"
"01:44:57","68.7","67.8","97","29.81","218","0","0","0.01","0.01"
"01:49:59","68.6","67.7","97","29.81","218","0","0","0.01","0.01"
"01:54:58","68.6","67.7","97","29.81","218","0","0","0.01","0.01"
"01:59:59","68.5","67.6","97","29.81","218","0","0","0.01","0.01"
"02:04:57","68.5","67.6","97","29.80","218","0","0","0.01","0.00"
"02:09:55","68.5","67.8","97.5","29.80","218","0","0","0.01","0.00"
"02:14:58","68.5","67.9","98","29.81","218","0","0","0.01","0.00"
"02:19:56","68.5","67.9","98","29.81","218","0","0","0.01","0.00"
"02:24:59","68.5","67.9","98","29.81","218","0","0","0.01","0.00"
"02:29:58","68.5","67.9","98","29.81","218","0","0","0.01","0.00"
"02:34:57","68.5","67.9","98","29.81","218","0","0","0.01","0.00"
"02:39:59","68.5","67.9","98","29.81","218","0","0","0.01","0.00"
"02:44:58","68.5","67.9","98","29.81","218","0","0","0.01","0.00"
"02:49:57","68.5","67.9","98","29.80","218","0","0","0.01","0.00"
"02:54:57","68.5","67.9","98","29.80","218","0","0","0.01","0.00"
"02:59:56","68.5","67.9","98","29.80","218","0","0","0.01","0.00"
"03:04:58","68.5","67.9","98","29.80","218","0","0","0.01","0.00"
"03:09:56","68.4","67.8","98","29.80","218","0","0","0.01","0.00"
"03:14:58","68.4","67.8","98","29.80","218","0","0","0.01","0.00"
"03:19:56","68.4","67.8","98","29.80","218","0","0","0.01","0.00"
"03:24:58","68.4","67.8","98","29.80","218","0","0","0.01","0.00"
"03:29:58","68.5","67.9","98","29.80","218","0","0","0.01","0.00"
"03:34:57","68.5","67.9","98","29.80","218","0","0","0.01","0.00"
"03:39:59","68.6","68","98","29.80","218","0","0","0.01","0.00"
"03:44:56","68.6","68","98","29.80","218","0","0","0.01","0.00"
"03:49:59","68.6","68","98","29.79","218","0","0","0.01","0.00"
"03:54:59","68.7","68.1","98","29.79","218","0","0","0.01","0.00"
"03:59:57","68.7","68.1","98","29.80","218","0","0","0.01","0.00"
"04:04:58","68.7","68.1","98","29.80","218","0","0","0.01","0.00"
"04:09:56","68.8","68.2","98","29.80","218","0","0","0.01","0.00"
"04:14:59","68.8","68.2","98","29.80","218","0","0","0.01","0.00"
"04:19:57","68.8","68.2","98","29.79","218","0","1","0.02","0.01"
"04:24:56","68.8","68.2","98","29.79","218","0","0","0.02","0.01"
"04:29:59","68.8","68.2","98","29.80","218","0","0","0.02","0.01"
"04:34:58","68.9","68.3","98","29.80","218","0","0","0.02","0.01"
"04:39:56","68.9","68.3","98","29.80","218","0","0","0.02","0.01"
"04:44:56","68.9","68.3","98","29.80","218","0","0","0.02","0.01"
"04:49:58","68.9","68.3","98","29.79","218","0","0","0.02","0.01"
"04:54:58","68.9","68.3","98","29.79","218","0","0","0.02","0.01"
"04:59:57","68.9","68.3","98","29.79","218","0","0","0.02","0.01"
"05:04:56","68.9","68.3","98","29.79","218","0","0","0.02","0.01"
"05:09:58","68.9","68.3","98","29.79","218","0","0","0.02","0.01"
"05:14:59","68.9","68.3","98","29.79","218","0","0","0.02","0.01"
"05:19:58","68.9","68.3","98","29.78","218","0","0","0.02","0.01"
"05:24:57","68.9","68.3","98","29.78","218","0","0","0.02","0.00"
"05:29:55","68.9","68.3","98","29.78","218","0","0","0.02","0.00"
"05:34:58","68.9","68.3","98","29.78","218","0","0","0.02","0.00"
"05:39:56","68.8","68.2","98","29.78","218","0","0","0.02","0.00"
"05:44:59","68.8","68.2","98","29.78","218","0","0","0.02","0.00"
"05:49:58","68.8","68.2","98","29.78","218","0","0","0.02","0.00"
"05:54:58","68.8","68.2","98","29.78","218","0","0","0.02","0.00"
"05:59:57","68.7","68.1","98","29.79","218","0","0","0.02","0.00"
"06:04:56","68.7","68.1","98","29.79","218","0","0","0.02","0.00"
"06:09:59","68.7","68.1","98","29.79","218","0","0","0.02","0.00"
"06:14:57","68.7","68.1","98","29.79","218","0","0","0.03","0.00"
"06:19:57","68.7","68.1","98","29.78","218","0","0","0.03","0.01"
"06:24:56","68.7","68.1","98","29.78","218","0","0","0.03","0.01"
"06:29:59","68.7","68.1","98","29.79","218","0","0","0.03","0.01"
"06:34:59","68.6","68","98","29.79","218","0","0","0.03","0.01"
"06:39:56","68.6","68","98","29.79","218","0","0","0.03","0.01"
"06:44:59","68.7","68.1","98","29.80","218","0","0","0.03","0.01"
"06:49:58","68.7","68.1","98","29.80","218","0","0","0.03","0.01"
"06:54:57","68.7","68.1","98","29.80","218","0","0","0.03","0.01"
"06:59:56","68.6","68","98","29.80","218","0","0","0.03","0.01"
"07:04:58","68.5","67.9","98","29.79","218","0","0","0.03","0.01"
"07:09:56","68.5","67.9","98","29.79","218","0","0","0.03","0.01"
"07:14:58","68.4","67.8","98","29.79","218","0","0","0.03","0.01"
"07:19:57","68.4","67.8","98","29.79","218","0","0","0.03","0.00"
"07:24:56","68.4","67.8","98","29.79","331","0.4","3.5","0.03","0.00"
"07:29:59","68.3","67.7","98","29.79","331","0.3","2","0.03","0.00"
"07:34:58","68.2","67.6","98","29.79","331","0.3","2.3","0.03","0.00"
"07:39:59","68.1","67.5","98","29.79","331","0","0","0.03","0.00"
"07:44:58","68.1","67.5","98","29.80","331","0.1","1.2","0.04","0.00"
"07:49:57","68.1","67.5","98","29.80","331","0.1","1.2","0.04","0.01"
"07:54:56","68.1","67.5","98","29.80","330","0.2","1.2","0.04","0.01"
"07:59:56","68.1","67.5","98","29.80","257","0.3","2","0.04","0.01"
"08:04:58","68.1","67.5","98","29.80","217","0.5","2.3","0.04","0.01"
"08:09:59","68.2","67.6","98","29.80","221","1.1","3.5","0.04","0.01"
"08:14:57","68.2","67.6","98","29.80","249","0.7","3.5","0.04","0.01"
"08:19:56","68.3","67.7","98","29.80","252","0.3","2","0.04","0.01"
"08:24:56","68.3","67.7","98","29.80","252","0.3","1.2","0.04","0.01"
"08:29:58","68.3","67.7","98","29.80","252","0","0","0.04","0.01"
"08:34:57","68.4","67.8","98","29.80","252","0.2","2.3","0.04","0.01"
"08:39:58","68.4","67.8","98","29.80","289","1.3","6","0.04","0.01"
"08:44:58","68.4","67.8","98","29.80","316","0.9","3.5","0.04","0.01"
"08:49:57","68.5","67.9","98","29.80","284","0.9","3.5","0.04","0.00"
"08:54:57","68.6","68","98","29.80","296","0.4","4","0.04","0.00"
"08:59:58","68.8","68.2","98","29.80","309","1.5","4","0.04","0.00"
"09:04:59","68.9","68.3","98","29.80","176","0.9","2.3","0.04","0.00"
"09:09:57","69","68.3","97.7","29.80","177","0.6","2.3","0.04","0.00"
"09:14:56","69","68.2","97.1","29.80","176","0.6","2.3","0.04","0.00"
"09:19:58","69.1","68.3","97.5","29.80","244","1.4","6","0.04","0.00"
"09:24:59","69","68.1","97","29.80","305","1.2","6","0.04","0.00"
"09:29:58","69","68","96.6","29.80","316","1.1","5","0.04","0.00"
"09:34:58","68.9","67.7","96","29.79","304","1.9","4.6","0.04","0.00"
"09:39:59","68.9","67.6","95.8","29.79","311","2.2","5","0.04","0.00"
"09:44:56","69","67.8","96","29.79","299","1.1","4","0.04","0.00"
"09:49:58","69.1","67.7","95.4","29.79","339","2.2","7","0.04","0.00"
"09:54:56","69.1","67.5","94.8","29.79","334","1.9","6.9","0.04","0.00"
"09:59:58","69.2","67.4","94.1","29.80","337","1.7","5.8","0.04","0.00"
"10:04:56","69.3","67.4","93.8","29.80","13","1.2","4.6","0.04","0.00"
"10:09:58","69.4","67.5","93.7","29.80","345","2.1","5","0.04","0.00"
"10:14:59","69.5","67.3","92.9","29.80","308","2","7","0.04","0.00"
"10:19:57","69.6","67.4","92.6","29.80","301","2","6.9","0.04","0.00"
"10:24:56","69.7","67.4","92.5","29.80","291","1.9","6","0.04","0.00"
"10:29:57","69.9","67.5","92.3","29.80","245","1.8","5","0.04","0.00"
"10:34:59","70.1","67.6","91.7","29.80","333","2.4","8","0.04","0.00"
"10:39:59","70.4","67.8","91.3","29.80","346","1.8","4","0.04","0.00"
"10:44:57","70.8","67.8","90.2","29.80","334","2.5","7","0.04","0.00"
"10:49:57","71.2","68.2","90.4","29.80","346","1.3","4","0.04","0.00"
"10:54:59","71.6","68.3","89.2","29.80","292","1.9","5","0.04","0.00"
"10:59:59","72","68.3","88.1","29.80","270","2.1","7","0.04","0.00"
"11:04:56","72.1","67.8","86.2","29.80","340","3.3","10","0.04","0.00"
"11:09:58","72.2","67.9","86.3","29.80","345","1.8","10.4","0.04","0.00"
"11:14:57","72.4","68","86","29.80","353","3.1","9","0.04","0.00"
"11:19:58","72.6","67.7","84.5","29.80","342","3.4","8","0.04","0.00"
"11:24:56","72.8","67.7","84","29.80","325","3.2","10","0.04","0.00"
"11:29:57","72.9","67.7","83.9","29.81","335","3.2","9.2","0.04","0.00"
"11:34:59","73.2","68.2","84.2","29.81","335","2.1","5.8","0.04","0.00"
"11:39:59","73.6","68.2","83.1","29.81","302","2.3","7","0.04","0.00"
"11:44:57","73.9","68.6","83.4","29.81","338","2.1","5","0.04","0.00"
"11:49:58","74.1","68.1","81.6","29.81","299","1.4","4","0.04","0.00"
"11:54:59","74.2","67.9","80.8","29.81","312","1.9","6","0.04","0.00"
"11:59:56","74.3","67.9","80.5","29.81","324","1.6","5","0.04","0.00"
"12:04:58","74.6","68.7","81.9","29.81","334","2.9","14","0.04","0.00"
"12:09:59","74.9","67.8","78.5","29.81","344","4.1","13.8","0.04","0.00"
"12:14:56","75.1","67.3","76.8","29.81","297","3.8","9","0.04","0.00"
"12:19:58","75.2","67.8","77.6","29.81","300","3.2","10","0.04","0.00"
"12:24:56","75.3","67.4","76.4","29.81","301","3.3","7","0.04","0.00"
"12:29:57","75.3","67.4","76.7","29.82","11","2.9","11.5","0.04","0.00"
"12:34:59","75.5","67.6","76.6","29.82","334","2.1","11.5","0.04","0.00"
"12:39:56","75.8","67.4","75.1","29.82","319","3.3","7","0.04","0.00"
"12:44:57","75.9","67","73.9","29.82","297","2.3","6","0.04","0.00"
"12:49:59","76","67.2","74.2","29.82","332","3","6","0.04","0.00"
"12:54:56","75.9","67.3","74.8","29.82","280","2.5","6","0.04","0.00"
"12:59:58","75.8","66.9","74.1","29.82","312","1.5","5","0.04","0.00"
"13:04:59","75.8","66.4","72.6","29.82","318","2.5","8.1","0.04","0.00"
"13:09:57","76","66.4","72.3","29.82","335","2.3","10.4","0.04","0.00"
"13:14:57","76.3","66.4","71.4","29.82","333","2.4","11","0.04","0.00"
"13:19:58","76.5","66.3","70.7","29.81","329","3.3","9.2","0.04","0.00"
"13:24:56","76.7","66","69.6","29.81","340","2.4","7","0.04","0.00"
"13:29:57","76.9","65.6","68.2","29.81","345","2.7","9.2","0.04","0.00"
"13:34:56","77.2","66.4","69.5","29.81","286","2.2","5","0.04","0.00"
"13:39:57","77.4","66.3","68.7","29.81","335","2.9","9.2","0.04","0.00"
"13:44:59","77.6","66.3","68.3","29.81","307","2.2","5.8","0.04","0.00"
"13:49:56","77.9","66.3","67.5","29.80","294","1.8","5","0.04","0.00"
"13:54:58","78","66","66.7","29.80","244","2.6","6","0.04","0.00"
"13:59:56","78.2","66.1","66.5","29.80","239","1.8","6","0.04","0.00"
"14:04:57","78.4","65.5","64.6","29.80","318","2.5","9","0.04","0.00"
"14:09:58","78.5","64.7","62.6","29.80","325","3.8","10.4","0.04","0.00"
"14:14:59","78.7","65","62.9","29.80","307","4.3","9.2","0.04","0.00"
"14:19:56","79.1","65.3","62.7","29.79","355","2.7","9.2","0.04","0.00"
"14:24:56","79.6","65","61.1","29.79","323","3.9","12","0.04","0.00"
"14:29:56","79.5","64.2","59.7","29.79","313","2.9","11.5","0.04","0.00"
"14:34:56","79.7","65.3","61.6","29.79","263","2.2","6","0.04","0.00"
"14:39:59","79.7","64.7","60.2","29.79","305","3.1","8","0.04","0.00"
"14:44:59","79.2","63.8","59.5","29.79","277","3.8","12","0.04","0.00"
"14:49:58","78.7","64.4","61.5","29.79","274","3.5","10","0.04","0.00"
"14:54:56","78.7","63.7","60.1","29.79","309","4.5","10.4","0.04","0.00"
"14:59:57","78.6","63.6","60.1","29.79","331","3.4","7","0.04","0.00"
"15:04:58","78.2","64","61.7","29.79","306","2.5","6.9","0.04","0.00"
"15:09:58","78.8","64.6","62","29.79","340","3.1","10.4","0.04","0.00"
"15:14:57","79.6","64.2","59.5","29.79","304","3.1","9.2","0.04","0.00"
"15:19:57","80.1","63.2","56.4","29.79","335","3.4","11.5","0.04","0.00"
"15:24:57","80.2","62.3","54.5","29.79","312","4","10.4","0.04","0.00"
"15:29:57","80.2","62.1","54.2","29.79","305","5.4","13","0.04","0.00"
"15:34:58","79.9","61.4","53.3","29.78","293","4.1","11.5","0.04","0.00"
"15:39:57","79.6","60.8","52.7","29.78","300","4.3","14","0.04","0.00"
"15:44:56","79.2","59.1","50.2","29.79","313","5.2","12","0.04","0.00"
"15:49:57","78.9","60.2","52.7","29.79","293","3.9","10.4","0.04","0.00"
"15:54:57","79.1","61.4","54.7","29.79","340","4","13","0.04","0.00"
"15:59:56","79","58.4","49.5","29.79","260","6.2","16.1","0.04","0.00"
"16:04:53","78.7","58.3","49.7","29.78","324","6.2","15","0.04","0.00"
"16:09:58","78.8","59","50.6","29.78","316","4.9","16.1","0.04","0.00"
"16:14:57","79.4","60.2","52","29.79","298","4","10.4","0.04","0.00"
"16:19:57","80","61.3","53.1","29.79","286","3.4","9.2","0.04","0.00"
"16:24:57","80.4","60.3","50.4","29.79","264","2.6","7","0.04","0.00"
"16:29:58","80.2","56","43.5","29.79","343","4.9","13","0.04","0.00"
"16:34:58","79.4","55.7","44.1","29.78","302","3.9","12.7","0.04","0.00"
"16:39:56","79.4","57.2","46.7","29.78","315","3.6","11","0.04","0.00"
"16:44:56","79.2","57.9","48.3","29.78","318","3.6","11.5","0.04","0.00"
"16:49:56","79.3","58.4","48.9","29.78","337","4.2","12","0.04","0.00"
"16:54:56","79.2","57.2","47","29.78","320","5.5","14","0.04","0.00"
"16:59:57","79.2","57.1","46.8","29.78","331","3.9","11.5","0.04","0.00"
"17:04:57","79.5","57","46.3","29.78","318","4.7","11.5","0.04","0.00"
"17:09:57","79.5","56.2","44.9","29.78","334","5.5","14","0.04","0.00"
"17:14:56","79.4","55.2","43.4","29.78","304","5.5","16","0.04","0.00"
"17:19:56","79.3","55.7","44.4","29.78","313","4.2","12","0.04","0.00"
"17:24:56","79.2","55.6","44.3","29.78","322","4.3","14","0.04","0.00"
"17:29:56","79.2","56.1","45.2","29.78","272","4.3","11","0.04","0.00"
"17:34:56","79.2","56.3","45.4","29.78","257","2.2","9","0.04","0.00"
"17:39:59","79.4","57","46.3","29.78","255","2.1","8.1","0.04","0.00"
"17:44:59","79.6","57.2","46.4","29.78","315","2.7","7","0.04","0.00"
"17:49:59","79.6","56.1","44.5","29.77","316","4","9.2","0.04","0.00"
"17:54:56","79.2","55.5","44.2","29.77","329","4.7","12","0.04","0.00"
"17:59:56","79","56.2","45.6","29.78","269","2.5","6.9","0.04","0.00"
"18:04:57","79.1","56.6","46.3","29.78","249","3","7","0.04","0.00"
"18:09:58","79.1","56.4","45.9","29.78","317","2.8","9.2","0.04","0.00"
"18:14:59","78.4","55.9","45.9","29.78","260","1.9","4","0.04","0.00"
"18:19:57","77.8","56.6","48.1","29.77","221","0.8","3","0.04","0.00"
"18:24:59","77.6","57.2","49.4","29.77","287","1.5","4","0.04","0.00"
"18:29:56","77.7","56.6","48.3","29.77","303","2.7","7","0.04","0.00"
"18:34:58","77.6","57.1","49.3","29.77","264","1.6","4","0.04","0.00"
"18:39:59","77.6","56.6","48.4","29.77","350","1.9","4","0.04","0.00"
"18:44:57","77.6","56.3","47.8","29.78","323","2","5","0.04","0.00"
"18:49:58","77.5","56.6","48.5","29.78","325","1.1","3.5","0.04","0.00"
"18:54:56","77.4","56.9","49.3","29.78","296","1.3","4","0.04","0.00"
"18:59:57","77.3","56.9","49.5","29.78","303","2.3","4","0.04","0.00"
"19:04:59","77.1","57.6","51","29.78","323","1.2","3.5","0.04","0.00"
"19:09:57","76.9","57.4","51.1","29.78","335","1.5","5","0.04","0.00"
"19:14:58","76.7","56.7","50.1","29.79","321","2.3","6","0.04","0.00"
"19:19:59","76.6","57.5","51.6","29.79","259","1.1","3.5","0.04","0.00"
"19:24:57","76.4","57.7","52.3","29.79","264","1","3.5","0.04","0.00"
"19:29:58","76.3","58.2","53.7","29.79","267","1.1","3.5","0.04","0.00"
"19:34:56","76","57.9","53.5","29.79","270","1.3","3.5","0.04","0.00"
"19:39:52","75.9","57.7","53.3","29.79","290","1.5","4","0.04","0.00"
"19:44:58","75.7","58.2","54.6","29.80","312","2.1","6","0.04","0.00"
"19:49:56","75.4","57.2","53.2","29.80","351","2","5.8","0.04","0.00"
"19:54:58","75.1","58","55.3","29.80","350","0.8","2.3","0.04","0.00"
"19:59:56","74.8","57","54.1","29.80","276","2.2","4","0.04","0.00"
"20:04:57","74.7","57.7","55.5","29.80","277","1.3","5","0.04","0.00"
"20:09:58","74.5","57.7","55.8","29.80","293","1.8","8","0.04","0.00"
"20:14:56","74.3","56.9","54.5","29.80","296","2.5","12","0.04","0.00"
"20:19:58","74.1","55.6","52.5","29.80","351","3.3","11.5","0.04","0.00"
"20:24:56","74","55.7","52.8","29.80","339","2.2","6","0.04","0.00"
"20:29:58","73.6","55.3","52.9","29.80","303","2.7","7","0.04","0.00"
"20:34:57","73.2","54.8","52.7","29.80","227","3.2","10.4","0.04","0.00"
"20:39:58","72.9","55","53.4","29.80","337","1.8","4.6","0.04","0.00"
"20:44:56","72.6","54.9","53.9","29.81","311","2.1","5","0.04","0.00"
"20:49:58","72.2","55","54.8","29.81","290","2.2","4","0.04","0.00"
"20:54:57","71.8","55.2","56","29.81","293","1.5","6","0.04","0.00"
"20:59:56","71.4","55.5","57.1","29.81","309","1.3","3.5","0.04","0.00"
"21:04:58","71","55.7","58.7","29.81","310","0.6","2.3","0.04","0.00"
"21:09:55","70.5","55.8","59.7","29.81","310","0.4","2.3","0.04","0.00"
"21:14:57","70.1","55.9","60.7","29.82","310","0.5","2.3","0.04","0.00"
"21:19:59","69.8","55.5","60.6","29.82","311","0.9","3.5","0.04","0.00"
"21:24:58","69.5","56.1","62.6","29.82","313","0.3","2.3","0.04","0.00"
"21:29:56","69.2","56.1","63.3","29.82","313","0.6","4","0.04","0.00"
"21:34:59","68.8","55.9","63.6","29.82","313","0.1","1.2","0.04","0.00"
"21:39:56","68.4","55.9","64.5","29.82","313","0","0","0.04","0.00"
"21:44:59","67.9","56.1","65.8","29.83","313","0","1","0.04","0.00"
"21:49:58","67.5","56.7","68.3","29.83","313","0","0","0.04","0.00"
"21:54:56","67.2","57.6","71.5","29.83","313","0","0","0.04","0.00"
"21:59:59","66.8","57.6","72.4","29.83","313","0","0","0.04","0.00"
"22:04:53","66.4","57.2","72.2","29.83","313","0","0","0.04","0.00"
"22:09:59","66","57.3","73.5","29.83","313","0","0","0.04","0.00"
"22:14:56","65.7","57.6","75","29.83","313","0","0","0.04","0.00"
"22:19:58","65.3","57.4","75.6","29.83","313","0","0","0.04","0.00"
"22:24:56","64.9","57.4","76.8","29.83","313","0","0","0.04","0.00"
"22:29:59","64.6","57.4","77.4","29.84","313","0","0","0.04","0.00"
"22:34:57","64.3","57.6","78.9","29.84","313","0","0","0.04","0.00"
"22:39:58","64.2","57.8","79.7","29.84","309","0","2","0.04","0.00"
"22:44:56","64","57.8","80.4","29.84","308","1.3","2.3","0.04","0.00"
"22:49:58","63.8","57.5","80","29.84","309","0.2","1.2","0.04","0.00"
"22:54:57","63.6","57","78.9","29.84","309","0.5","2.3","0.04","0.00"
"22:59:59","63.6","56.8","78.5","29.84","309","0","0","0.04","0.00"
"23:04:57","63.6","57.1","79.2","29.84","309","0","0","0.04","0.00"
"23:09:59","63.6","57.3","80","29.84","309","0","0","0.04","0.00"
"23:14:56","63.5","57.5","80.5","29.84","309","0","0","0.04","0.00"
"23:19:59","63.3","57.4","81","29.84","309","0","0","0.04","0.00"
"23:24:58","63.1","57.2","81","29.84","309","0","0","0.04","0.00"
"23:29:56","62.9","57.1","81.5","29.84","309","0","0","0.04","0.00"
"23:34:59","62.7","57.2","82.3","29.83","309","0","0","0.04","0.00"
"23:39:56","62.5","57.3","83","29.83","309","0.2","1.2","0.04","0.00"
"23:44:59","62.3","57.4","83.7","29.84","309","0","1","0.04","0.00"
"23:49:58","62.2","57.3","83.8","29.84","309","0.1","2.3","0.04","0.00"
"23:54:58","62","56.8","83","29.84","309","0","1.2","0.04","0.00"
"23:59:56","62","56.7","82.7","29.85","309","0.1","1.2","0.04","0.00"
